This demonstration page uses our WeatherBlox Daily Observations layout. Learn more.

Left ArrowRight Arrow

31.84235, -102.49876

Hourly Observations for May 12, 2015

Temp ( °F °C ) Dew Point ( °F °C ) Humidity (%) Winds ( mph kmh ) Pressure ( in mb ) Visibility ( mi km ) Precip ( " mm )
12:17 am 00:17 Cloudy with Nearby Thunderstorms 62 16.7 43 6.1 50 50 E 18 30 30.12 1020 10 16 0.00 0.00
12:29 am 00:29 Cloudy with Thunderstorms 62 16.7 43 6.1 50 50 E 16 26 30.12 1020 10 16 0.00 0.00
12:43 am 00:43 Mostly Clear with Thunderstorms N/A N/A N/A undefined N/A N/A N/A 0.00 0.00
12:53 am 00:53 Mostly Clear with Thunderstorms 62 16.7 44 6.7 52 52 E 13 20 30.10 1019 10 16 0.00 0.00
1:38 am 01:38 Cloudy with Thunderstorms 57 13.9 49 9.4 74 74 ENE 10 17 30.15 1021 6 10 0.13 3.30
1:47 am 01:47 Cloudy with Nearby Thunderstorms 57 14 50 10 77 77 ENE 12 19 30.15 1021 10 16 0.13 3.30
1:48 am 01:48 Cloudy with Nearby Thunderstorms 57 13.9 50 10 78 78 ENE 12 19 30.11 1020 10 16 0.13 3.30
2:23 am 02:23 Cloudy with Nearby Thunderstorms 55 12.8 51 10.6 87 87 ENE 10 17 30.15 1021 2 3 0.17 4.32
2:40 am 02:40 Cloudy with Nearby Thunderstorms 55 12.8 51 10.6 87 87 NE 8 13 30.15 1021 9 14 0.27 6.86
2:53 am 02:53 Cloudy with Nearby Thunderstorms 55 12.8 51 10.6 87 87 NNE 10 17 30.10 1019 8 13 0.28 7.11
3:24 am 03:24 Cloudy 56 13.3 51 10.6 84 84 ENE 13 20 30.15 1021 10 16 0.00 0.03
3:53 am 03:53 Cloudy with Light Rain 54 12.2 50 10 87 87 ENE 15 24 30.10 1019 10 16 0.01 0.25
4:15 am 04:15 Cloudy 54 12.2 50 10 87 87 ENE 16 26 30.18 1022 10 16 0.00 0.03
4:33 am 04:33 Cloudy 54 12.2 50 10 87 87 E 15 24 30.18 1022 10 16 0.00 0.03
4:41 am 04:41 Cloudy 54 12.2 50 10 87 87 E 14 22 30.18 1022 10 16 0.00 0.03
4:53 am 04:53 Cloudy with Light Rain 54 12.2 50 10 87 87 E 12 19 30.10 1019 10 16 0.00 0.03
5:53 am 05:53 Cloudy with Light Rain 55 12.8 51 10.6 87 87 E 10 17 30.12 1020 10 16 0.00 0.03
6:13 am 06:13 Cloudy 55 12.8 51 10.6 87 87 ENE 13 20 30.18 1022 10 16 0.00 0.03
6:53 am 06:53 Cloudy with Light Rain 54 12.2 50 10 87 87 E 13 20 30.15 1021 10 16 0.02 0.51
7:09 am 07:09 Cloudy 54 12.2 51 10.6 90 90 ENE 13 20 30.21 1023 10 16 0.00 0.03
7:14 am 07:14 Cloudy 54 12.2 51 10.6 90 90 E 13 20 30.21 1023 10 16 0.00 0.03
7:50 am 07:50 Cloudy with Light Rain 54 12 52 11 94 94 ENE 15 24 30.21 1023 2 3 0.00 0.03
7:53 am 07:53 Cloudy with Light Rain 53 11.7 51 10.6 93 93 ENE 13 20 30.17 1022 3 4 0.00 0.03
8:01 am 08:01 Cloudy with Mist and Fog 54 12.2 51 10.6 90 90 ENE 12 19 30.24 1024 5 8 0.00 0.03
8:53 am 08:53 Cloudy with Mist and Fog 54 12.2 51 10.6 90 90 E 14 22 30.19 1022 5 8 0.00 0.03
9:53 am 09:53 Cloudy with Mist and Fog 54 12.2 51 10.6 90 90 E 14 22 30.21 1023 6 10 0.00 0.03
10:07 am 10:07 Cloudy with Mist and Fog 54 12.2 52 11.1 93 93 E 12 19 30.27 1025 3 5 0.00 0.00
10:21 am 10:21 Cloudy with Mist and Fog 54 12.2 52 11.1 93 93 ENE 10 17 30.27 1025 3 4 0.00 0.00
10:53 am 10:53 Cloudy with Mist and Fog 54 12.2 52 11.1 93 93 ENE 12 19 30.22 1023 2 3 0.00 0.00
11:20 am 11:20 Cloudy with Mist and Fog 55 12.8 53 11.7 93 93 E 12 19 30.27 1025 4 6 0.00 0.00
11:53 am 11:53 Cloudy 56 13.3 53 11.7 90 90 ESE 10 17 30.22 1023 7 11 0.00 0.00
12:03 pm 12:03 Cloudy 57 13.9 53 11.7 87 87 E 9 15 30.24 1024 8 13 0.00 0.00
12:53 pm 12:53 Cloudy 59 15 54 12.2 83 83 E 13 20 30.19 1022 10 16 0.00 0.00
1:53 pm 13:53 Cloudy 62 16.7 55 12.8 78 78 ESE 15 24 30.16 1022 10 16 0.00 0.00
2:53 pm 14:53 Cloudy 63 17.2 56 13.3 78 78 ESE 13 20 30.14 1021 10 16 0.00 0.00
3:30 pm 15:30 Cloudy 67 19.4 57 13.9 71 71 SE 16 26 30.06 1018 10 16 0.00 0.00
3:53 pm 15:53 Mostly Cloudy 68 20 56 13.3 65 65 ESE 17 28 30.09 1019 10 16 0.00 0.00
4:14 pm 16:14 Partly Cloudy 70 21.1 56 13.3 61 61 ESE 20 31 30.00 1016 10 16 0.00 0.00
4:34 pm 16:34 Mostly Cloudy 70 21.1 56 13.3 61 61 ESE 20 31 30.00 1016 10 16 0.00 0.00
4:53 pm 16:53 Mostly Cloudy 71 21.7 54 12.2 55 55 ESE 18 30 30.03 1017 10 16 0.00 0.00
5:53 pm 17:53 Cloudy 71 21.7 56 13.3 59 59 ESE 18 30 30.01 1016 10 16 0.00 0.00
6:53 pm 18:53 Cloudy 69 20.6 56 13.3 63 63 ESE 18 30 30.01 1016 10 16 0.00 0.00
7:53 pm 19:53 Sunny 67 19.4 56 13.3 68 68 ESE 17 28 30.01 1016 10 16 0.00 0.00
8:53 pm 20:53 Cloudy 63 17.2 55 12.8 76 76 ESE 17 28 30.05 1018 10 16 0.00 0.00
9:11 pm 21:11 Cloudy 63 17.2 56 13.3 78 78 ESE 14 22 30.06 1018 10 16 0.00 0.00
9:34 pm 21:34 Cloudy 63 17.2 56 13.3 78 78 ESE 16 26 30.06 1018 10 16 0.00 0.00
9:53 pm 21:53 Cloudy 63 17.2 56 13.3 78 78 E 17 28 30.05 1018 10 16 0.00 0.00
10:53 pm 22:53 Partly Cloudy 62 16.7 56 13.3 80 80 ESE 12 19 30.08 1019 10 16 0.00 0.00
11:24 pm 23:24 Cloudy 62 16.7 56 13.3 80 80 ESE 15 24 30.06 1018 10 16 0.00 0.00
11:53 pm 23:53 Cloudy 62 16.7 56 13.3 80 80 ESE 14 22 30.06 1018 10 16 0.00 0.00

Powered by AerisWeather